Location: ???? ????
(41.4149°N, 22.8816°E)
Time: 06:09:55
(UTC+00:00)

Daily predictions for brighter satellites

Satellite Brightness Start Highest point End
(mag) Time Altitude Azimuth Time Altitude Azimuth Time Altitude Azimuth
BREEZE-M DEB (TANK) 4.2 16:07:08 10° NW 16:11:11 48° NNE 16:26:32 10° E
Resurs 01 Rocket 2.9 16:27:14 10° ESE 16:30:29 21° ENE 16:33:45 10° NNE
Cosmos 2227 Rocket 2.5 16:25:24 10° S 16:30:46 47° ESE 16:36:09 10° NE
PSLV R/B 4.4 16:28:05 10° SE 16:31:28 25° ENE 16:34:51 10° NNE
IRS-1C 4.5 16:28:55 10° S 16:34:14 74° WSW 16:39:34 10° NNW
Cosmos 1782 4.1 16:32:11 10° NE 16:34:25 16° ENE 16:36:38 10° ESE
Cosmos 44 Rocket 3.5 16:30:46 10° SW 16:35:39 80° WNW 16:40:44 10° NNE
Cosmos 2228 3.9 16:33:43 10° NNE 16:37:16 26° ENE 16:40:48 10° SE
SJ-6F 4.4 16:33:22 10° SSE 16:37:17 87° WSW 16:41:14 10° NNW
SL-16 R/B 3.3 16:32:58 10° N 16:37:25 23° NE 16:41:51 10° ESE
COSMO-SKYMED 1 2.7 16:35:45 10° NNE 16:39:43 46° E 16:43:39 10° S
USA 234 3.3 16:39:54 10° ESE 16:46:24 70° NE 16:52:55 10° NW
Cosmos 1125 Rocket 4.3 16:45:28 10° NNW 16:50:33 57° WSW 16:55:38 10° S
Aureole 3 Rocket 2.4 16:50:06 10° N 16:53:29 77° W 16:56:28 10° S
YAOGAN 1 2.5 16:55:01 10° SSE 16:59:16 89° ENE 17:03:32 10° NNW
Cosmos 773 Rocket 4.4 16:56:34 10° SSW 17:01:48 70° WNW 17:07:05 10° NNE
Gbstr 26 Del rocket 4.2 16:56:18 10° SW 17:02:45 79° SE 17:09:53 12° NE
SJ-6B 3.5 17:01:15 10° SE 17:04:06 25° ENE 17:06:58 10° NNE
Cosmos 1975 Rocket 2.9 17:00:55 10° S 17:05:13 70° E 17:09:32 10° NNE
Atlas Centaur 2 4.3 16:58:48 10° WSW 17:05:41 31° SSW 17:11:58 10° SE
Cosmos 1455 Rocket 3.1 17:01:25 10° N 17:05:44 81° W 17:10:01 10° S
Spot 4 Rocket 4.0 17:05:42 10° SSE 17:10:48 85° ENE 17:15:56 10° NNW
Radarsat Rocket 4.0 17:06:12 10° SSE 17:12:04 85° ENE 17:18:25 10° NNW
Cosmos 1816 Rocket 4.5 17:06:48 10° S 17:12:49 60° E 17:18:56 10° NNE
NOAA 6 3.9 17:08:23 10° SSE 17:13:30 74° ENE 17:18:39 10° N
BREEZE-M DEB (TANK) 3.3 17:11:49 10° SSW 17:15:06 56° SE 17:23:49 13° ENE
Cosmos 2297 Rocket 3.9 17:10:07 10° WSW 17:15:11 33° WNW 17:20:18 10° N
DNEPR-1 R/B 4.1 17:15:52 10° NNW 17:20:58 77° ENE 17:27:10 10° SE
Cosmos 1943 4.5 17:17:40 10° N 17:21:49 20° NE 17:22:30 20° ENE
NOSS 3-4 (A) 4.1 17:18:27 10° NW 17:25:28 80° WSW 17:33:41 10° SSE
Cosmos 2034 Rocket 4.1 17:19:37 10° N 17:25:39 53° ENE 17:31:42 10° SSE
NOSS 3-4 (C) 4.0 17:18:44 10° NW 17:25:46 81° WSW 17:33:59 10° SSE
Cosmos 1072 Rocket 4.4 17:19:56 10° N 17:26:10 88° E 17:32:17 10° S
Helios 1A Rocket 2.5 17:26:46 38° ENE 17:27:24 44° E 17:30:32 10° S
Cosmos 2058 2.6 17:30:35 10° S 17:34:26 76° E 17:38:20 10° N
Cosmos 2219 3.2 17:28:55 10° S 17:34:31 58° ESE 17:40:09 10° NNE
IRAS Rocket 4.2 17:32:11 10° SSE 17:37:43 72° ENE 17:43:21 10° N
Cosmos 2263 Rocket 2.2 17:32:22 10° SSW 17:38:02 83° WNW 17:43:47 10° NNE
SL-8 R/B 4.3 17:34:44 10° SSW 17:39:07 38° SE 17:39:51 35° ESE
Tiangong -2.3 17:38:13 10° W 17:41:24 87° S 17:41:29 84° SE
SPOT 5 3.3 17:44:22 40° E 17:44:54 41° ENE 17:49:40 10° N
Cosmos 1346 Rocket 3.8 17:42:25 10° SSW 17:45:53 43° WNW 17:49:22 10° N
ARIANE 6 FM1 Upper Stage 2.7 17:42:50 10° NNW 17:46:40 52° NE 17:46:40 52° NE
Cosmos 2344 3.6 17:40:10 10° SW 17:48:20 81° NW 17:55:33 10° NE
Cosmos 2084 3.6 17:45:53 10° SW 17:50:01 67° NW 17:51:50 32° NNE
Cosmos 1464 Rocket 4.4 17:44:57 10° NNW 17:51:12 65° W 17:57:23 10° S
Cosmos 2237 Rocket 4.4 17:48:47 10° NW 17:53:25 26° WSW 17:58:02 10° SSW
Cosmos 546 4.5 17:52:34 10° SW 17:56:08 79° SSW 17:56:08 79° SSW
Cosmos 2082 3.6 17:55:25 10° SSW 18:01:06 77° ESE 18:04:45 23° NNE
Resurs 01 Rocket 3.1 18:02:31 10° SSW 18:06:34 37° W 18:10:41 10° NNW
Terra 4.2 18:11:08 11° NNE 18:11:08 11° NNE 18:11:16 10° NNE
Cosmos 1536 Rocket 4.1 18:07:59 10° S 18:18:52 - N 18:11:05 47° S
Cosmos 2227 Rocket 4.1 18:10:17 10° WSW 18:15:00 27° NW 18:19:45 10° N
Feng Yun 1-1 Rocket 4.5 18:17:15 55° NE 18:17:15 55° NE 18:22:31 10° N
SL-16 R/B 2.7 18:16:21 10° NNW 18:21:53 57° WSW 18:25:21 23° S
Cosmos 1538 Rocket 4.1 18:21:29 10° SSW 18:26:49 77° WNW 18:27:57 56° N
CSL-04 Debris 4.2 18:35:13 70° SW 18:35:37 74° WSW 18:41:04 10° NNW
CSL-04 Rocket 4.0 18:41:22 55° SW 18:41:58 58° W 18:47:11 10° NNW
Cosmos 1943 4.3 19:00:41 10° NNW 19:04:19 40° NW 19:04:19 40° NW
